Weather in Budarino

Russia / Astrakhan Oblast     45°42′02″N   47°24′31″E
temp.,
°C
wind,
m/s
gust,
m/s
humid.,
%
clouds,
%
prec.,
mm/h
press.,
hPa
HPBL,
m
5 august, thu
thu501:00+27nne2248100 0.0 101114
04:00+26ene2252100 0.0 101114
07:00+29nne594497 0.0 1012321
10:00+33nne7733100 0.2 1012766
13:00+36nne652619 0.0 10111453
16:00+39n54215 0.0 10102701
19:00+29ne9124732 0.3 1012497
22:00+27nne494733 1.1 1011186
6 august, fri
fri601:00+27nne5114528 0.0 1012272
04:00+25ne4103739 0.0 1012206
07:00+26ene510355 0.0 1012274
10:00+33ene66225 0.0 1012910
13:00+37ese44190 0.0 10112070
16:00+35se76240 0.0 1010849
19:00+32se67320 0.0 1009447
22:00+27e49460 0.0 1009195
7 august, sat
sat701:00+26e49440 0.0 1009175
04:00+25ene513420 0.0 1009277
07:00+28e815391 0.0 1009540
10:00+35ese1012225 0.0 1009975
13:00+37ese1011184 0.0 10081149
16:00+37ese1011185 0.0 10081128
19:00+34e1014240 0.0 1007636
22:00+29e716320 0.0 1008356
8 august, sun
sun801:00+29e7163619 0.0 1008366
04:00+29e7174563 0.0 1008407
07:00+31ese81643100 0.0 1008553
10:00+35se91332100 0.0 1008744
13:00+36se8122983 0.0 1008777
16:00+35se811375 0.0 1008578
19:00+31se811485 0.0 1008365
22:00+28sse48715 0.0 1009189
9 august, mon
mon901:00+28s346141 0.0 100963
04:00+27ese115921 0.0 100911
07:00+30wnw34465 0.0 1009123
10:00+37nnw56255 0.0 10091048
13:00+40n44197 0.0 10092473
16:00+41ene44185 0.0 10092699
19:00+36sse55319 0.1 1009305
22:00+32sw343899 0.3 100950